[[{"header":{"parameterUnit":"m.s-1","parameterCategory":1,"la1":30.2991,"la2":30.254,"lo1":-89.0895,"lo2":-89.0444,"dy":0.0017,"dx":0.0017,"nx":28,"ny":28,"refTime":"2025-08-16T21:00:00:Z","depth":0,"parameterNumber":2,"parameterNumberName":"U-component_of_WINDS"},"data":[0,0,0,0,0,0,0,0,0,0,0,0,0,0,0,0,0,0,0,0,0,0,0,0,0,0,0,0,0,0,0,0,0,0,0,0,0,0,0,0,0,0,0,0,0,0,0,0,0,0,0,0,0,0,0,0,0,0,1.3441,1.3441,0,1.3447,1.3447,1.3447,1.3396,1.3395,1.3393,1.3392,1.3402,1.3404,1.3405,0,0,0,0,0,0,0,0,0,0,0,0,0,1.3389,1.339,1.3441,1.3441,1.3441,1.3447,1.3447,1.3447,1.3396,1.3394,1.3393,1.3391,1.3402,1.3403,1.3405,0,0,0,0,0,0,0,0,0,0,0,0,0,1.3405,1.339,1.3441,1.3416,1.3414,1.3447,1.3447,1.3447,1.3397,1.3394,1.3392,1.339,1.3401,1.3403,1.3406,1.3464,0,0,1.3413,1.3414,0,0,0,0,0,0,0,0,1.3404,1.3407,1.342,1.3418,1.3416,1.3418,1.3432,1.3453,1.3397,1.3403,1.3392,1.3389,1.341,1.3411,1.3417,1.3464,1.3464,1.3413,1.3415,1.3416,1.3416,0,0,0,0,0,0,0,1.3403,1.3406,1.3443,1.342,1.3418,1.3406,1.3406,1.3436,1.3419,1.3403,1.3399,1.34,1.3408,1.3415,1.3417,1.3465,1.3413,1.3415,1.3417,1.3418,1.3558,1.356,0,0,0,0,0,0,1.3405,1.3406,1.3443,1.3444,1.3404,1.3409,1.3409,1.342,1.3418,1.3416,1.3402,1.3398,1.3412,1.3414,1.3417,1.3484,1.3416,1.3418,1.3419,1.3556,1.3559,1.3561,0,0,0,0,0,0,1.3404,1.3409,1.3443,1.3424,1.3427,1.3412,1.3425,1.3421,1.3428,1.3417,1.3415,1.3412,1.341,1.3414,1.3452,1.3483,1.3419,1.3421,1.3553,1.3557,1.356,1.3618,0,0,0,0,0,0,1.3402,1.3408,1.343,1.3424,1.3428,1.3477,1.3427,1.3423,1.3432,1.3426,1.3426,1.3424,1.3409,1.3448,1.3454,1.3485,1.3423,1.355,1.3555,1.3559,1.3613,1.3623,1.3631,0,0,0,0,0,1.3401,1.3447,1.3431,1.3436,1.3454,1.3479,1.3481,1.3461,1.3434,1.3456,1.3449,1.3424,1.3479,1.3453,1.3459,1.3491,1.3548,1.3553,1.3558,1.3609,1.3621,1.3631,0,0,0,0,0,0,1.3458,1.3446,1.3428,1.3474,1.3477,1.347,1.3497,1.3475,1.3488,1.3482,1.3458,1.3459,1.3501,1.35,1.3471,1.3547,1.3509,1.3516,1.3545,1.3557,1.3566,1.3565,1.3425,0,0,0,0,0,1.3476,1.3496,1.3484,1.3526,1.3528,1.3512,1.3522,1.3507,1.351,1.3512,1.3508,1.3513,1.3531,1.3544,1.3561,1.3613,1.3612,1.3638,1.3647,1.3655,1.3661,1.3687,1.3698,1.3578,1.3578,1.3578,0,0,1.3513,1.3509,1.3523,1.3537,1.3538,1.356,1.3514,1.3539,1.3555,1.3516,1.3551,1.3548,1.3553,1.3598,1.3618,1.3599,1.3694,1.3661,1.3667,1.3669,1.3693,1.3705,1.3715,1.3581,1.3581,1.358,0,0,1.3592,1.3591,1.3624,1.3626,1.3627,1.3616,1.3624,1.362,1.3616,1.365,1.3621,1.364,1.3673,1.3676,1.3683,1.3762,1.3739,1.3768,1.3815,1.3841,1.3851,1.3859,1.3886,1.3896,1.3774,1.3774,1.3774,0,1.3639,1.3669,1.3645,1.3671,1.3678,1.3642,1.3676,1.3679,1.3687,1.3693,1.3671,1.371,1.371,1.3755,1.3774,1.3781,1.3789,1.3768,1.3851,1.3859,1.3866,1.3892,1.3903,1.3777,1.3777,1.3777,1.3776,0,1.3725,1.3747,1.3774,1.378,1.379,1.382,1.3802,1.3815,1.3799,1.379,1.3825,1.3824,1.3839,1.3849,1.3834,1.3891,1.3879,1.3855,1.3816,1.3882,1.3905,1.3915,1.3782,1.3781,1.378,1.3779,0,0,1.3841,1.3832,1.3842,1.3844,1.3842,1.3859,1.3888,1.39,1.3912,1.3918,1.3942,1.3969,1.3946,1.3953,1.3938,1.3961,1.4022,1.3933,1.3933,1.3949,1.4084,1.4102,1.4114,1.4007,1.4009,1.401,1.4084,0,1.3916,1.3963,1.3942,1.3992,1.4011,1.3976,1.4001,1.4003,1.3996,1.4012,1.4004,1.4023,1.3992,1.3996,1.4017,1.401,1.4049,1.4005,1.4029,1.403,1.4028,1.4126,1.4145,1.4215,1.4093,1.4094,1.4096,0,1.4011,1.4019,1.4069,1.4063,1.407,1.4093,1.4102,1.4118,1.412,1.4113,1.412,1.4099,1.4128,1.409,1.4128,1.4098,1.4107,1.4105,1.4108,1.4109,1.4066,1.4129,1.4236,1.4247,1.411,1.4109,1.4108,0,1.4088,1.4112,1.4145,1.4148,1.4141,1.4158,1.4156,1.4156,1.4164,1.4173,1.4178,1.4191,1.4198,1.4209,1.4193,1.4167,1.4233,1.4194,1.4228,1.4229,1.4243,1.4243,1.4353,1.4251,1.4251,1.425,1.425,0,1.4174,1.4207,1.4179,1.42,1.4235,1.4211,1.4247,1.4241,1.4241,1.426,1.4232,1.4251,1.4228,1.4245,1.4233,1.4266,1.427,1.4265,1.4261,1.4267,1.4268,1.4272,1.4266,1.4253,1.4253,1.4252,1.4252,0,1.4267,1.425,1.4283,1.4274,1.4272,1.4298,1.4291,1.4309,1.43,1.4324,1.4329,1.4314,1.4332,1.4316,1.4335,1.4326,1.437,1.436,1.4369,1.4366,1.44,1.4397,1.4516,1.453,1.4421,1.4422,1.4422,0,1.4322,1.4346,1.4338,1.4348,1.4348,1.4365,1.4372,1.435,1.436,1.4363,1.4381,1.4397,1.4408,1.4439,1.443,1.4444,1.4433,1.4474,1.4435,1.444,1.4433,1.4431,1.4433,1.4482,1.4483,1.4484,1.4485,0,1.4422,1.4412,1.4424,1.4433,1.4443,1.4449,1.4454,1.4464,1.4441,1.4453,1.447,1.4479,1.4496,1.4512,1.4523,1.4522,1.45,1.4497,1.4506,1.4512,1.4515,1.4513,1.4389,1.4495,1.4494,1.4493,1.4493,1.4492,1.4497,1.4516,1.4513,1.4527,1.4527,1.4532,1.4548,1.454,1.4553,1.4564,1.4551,1.4572,1.4573,1.4584,1.4586,1.4602,1.4585,1.4598,1.4601,1.4604,1.4608,1.4513,1.4605,1.4604,1.4604,1.4604,1.4603,0,1.4595,1.4591,1.4604,1.4609,1.4621,1.4597,1.4601,1.4612,1.463,1.4632,1.4642,1.4662,1.4677,1.4669,1.4682,1.4696,1.4686,1.47,1.4699,1.4699,1.4624,1.4614,1.4708,1.4708,1.4708,1.4708,1.4708,1.4708,1.4647,1.4676,1.4666,1.4696,1.4692,1.4711,1.4715,1.4719,1.472,1.4742,1.4754,1.4748,1.4746,1.4758,1.477,1.4768,1.4773,1.4791,1.4785,1.4714,1.4704,1.4694,1.4685,1.4792,1.4793,1.4858,1.4859,1.4859]},{"header":{"parameterUnit":"m.s-1","parameterCategory":1,"la1":30.2991,"la2":30.254,"lo1":-89.0895,"lo2":-89.0444,"dy":0.0017,"dx":0.0017,"nx":28,"ny":28,"refTime":"2025-08-16T21:00:00:Z","depth":0,"parameterNumber":3,"parameterNumberName":"V-component_of_WINDS"},"data":[0,0,0,0,0,0,0,0,0,0,0,0,0,0,0,0,0,0,0,0,0,0,0,0,0,0,0,0,0,0,0,0,0,0,0,0,0,0,0,0,0,0,0,0,0,0,0,0,0,0,0,0,0,0,0,0,0,0,1.5124,1.5124,0,1.5145,1.5145,1.5146,1.5149,1.5149,1.5149,1.5149,1.5169,1.5169,1.517,0,0,0,0,0,0,0,0,0,0,0,0,0,1.5083,1.5083,1.5124,1.5124,1.5124,1.5145,1.5145,1.5146,1.5149,1.5149,1.5149,1.5149,1.5168,1.5169,1.517,0,0,0,0,0,0,0,0,0,0,0,0,0,1.5102,1.5084,1.5124,1.5129,1.5129,1.5145,1.5146,1.5146,1.5149,1.5149,1.5149,1.5148,1.5168,1.5169,1.517,1.5182,0,0,1.5173,1.5174,0,0,0,0,0,0,0,0,1.5101,1.5103,1.5128,1.5128,1.5129,1.5144,1.5138,1.5158,1.5149,1.5142,1.5149,1.5148,1.5161,1.5162,1.5167,1.5183,1.5184,1.5173,1.5174,1.5174,1.5175,0,0,0,0,0,0,0,1.5099,1.5102,1.5132,1.5128,1.5129,1.5129,1.5131,1.5142,1.5152,1.5142,1.5143,1.5145,1.5161,1.5166,1.5167,1.5184,1.5173,1.5174,1.5175,1.5175,1.521,1.521,0,0,0,0,0,0,1.5098,1.5101,1.5132,1.5133,1.5114,1.513,1.5132,1.514,1.5152,1.5154,1.5145,1.5145,1.5164,1.5166,1.5168,1.5182,1.5174,1.5175,1.5176,1.5209,1.521,1.521,0,0,0,0,0,0,1.5097,1.51,1.5131,1.5117,1.5121,1.5131,1.5139,1.514,1.5145,1.5155,1.5156,1.5149,1.5164,1.5166,1.5178,1.5183,1.5176,1.5177,1.5209,1.5209,1.521,1.521,0,0,0,0,0,0,1.5095,1.51,1.5105,1.5117,1.5122,1.5142,1.5139,1.5141,1.5147,1.5147,1.5158,1.516,1.5164,1.5177,1.5179,1.5184,1.5178,1.5209,1.5209,1.521,1.521,1.5211,1.5211,0,0,0,0,0,1.5094,1.5105,1.5106,1.5109,1.5129,1.5142,1.5144,1.515,1.5148,1.5152,1.5158,1.5159,1.5182,1.5178,1.5181,1.5186,1.5208,1.5209,1.521,1.521,1.5211,1.5211,0,0,0,0,0,0,1.5093,1.5106,1.5108,1.5123,1.5131,1.5142,1.5149,1.5151,1.516,1.5159,1.5165,1.5167,1.5178,1.5183,1.5179,1.5197,1.5195,1.5196,1.5194,1.5195,1.5195,1.5194,1.5179,0,0,0,0,0,1.5094,1.5105,1.5115,1.5128,1.5132,1.514,1.5145,1.5149,1.5157,1.5161,1.5168,1.5175,1.5184,1.519,1.5198,1.5211,1.5212,1.5215,1.5216,1.5217,1.5218,1.5223,1.5224,1.5212,1.5212,1.5212,0,0,1.5098,1.5106,1.5112,1.5127,1.5134,1.5144,1.5143,1.5153,1.516,1.5162,1.5174,1.5179,1.5188,1.52,1.5205,1.5204,1.5221,1.5217,1.5218,1.5219,1.5224,1.5225,1.5226,1.5212,1.5212,1.5212,0,0,1.5108,1.5116,1.5127,1.5133,1.5144,1.5149,1.5151,1.5162,1.5165,1.5177,1.5179,1.5186,1.5202,1.5208,1.5213,1.5224,1.5224,1.5226,1.523,1.5235,1.5236,1.5237,1.524,1.5241,1.5227,1.5227,1.5227,0,1.5111,1.5126,1.5131,1.5141,1.5147,1.515,1.516,1.5166,1.5179,1.5182,1.5181,1.5199,1.5206,1.5218,1.5221,1.5225,1.5227,1.5225,1.5236,1.5237,1.5238,1.5241,1.5242,1.5227,1.5227,1.5227,1.5227,0,1.5128,1.5138,1.5145,1.5157,1.5164,1.5174,1.518,1.5186,1.5188,1.5192,1.5203,1.5211,1.5221,1.5224,1.5226,1.5236,1.5235,1.5235,1.5232,1.5239,1.5242,1.5243,1.5227,1.5227,1.5227,1.5227,0,0,1.5139,1.5153,1.5156,1.5161,1.5172,1.5179,1.5188,1.5198,1.5203,1.5211,1.5218,1.523,1.5229,1.5235,1.5238,1.5242,1.5249,1.5241,1.5241,1.5242,1.526,1.526,1.5262,1.525,1.525,1.525,1.5259,0,1.515,1.5168,1.5172,1.5187,1.5195,1.5197,1.5205,1.5212,1.5216,1.5223,1.5228,1.5236,1.5235,1.5238,1.5243,1.5248,1.5253,1.5247,1.5256,1.5256,1.5253,1.5263,1.5264,1.5272,1.526,1.5261,1.5261,0,1.5167,1.5175,1.519,1.5199,1.5202,1.5209,1.5218,1.5225,1.5232,1.5235,1.5241,1.5243,1.5251,1.5248,1.5259,1.5255,1.5258,1.5261,1.5261,1.5262,1.5259,1.5264,1.5274,1.5275,1.5263,1.5263,1.5262,0,1.5172,1.5187,1.5198,1.5202,1.5213,1.5217,1.5222,1.5229,1.5234,1.5241,1.5244,1.5252,1.5256,1.5262,1.5265,1.5263,1.5276,1.5273,1.5277,1.5277,1.528,1.528,1.5291,1.5283,1.5283,1.5283,1.5283,0,1.5185,1.5193,1.5201,1.5207,1.5217,1.5221,1.523,1.5235,1.5241,1.5247,1.5249,1.5255,1.526,1.5266,1.5269,1.5277,1.5279,1.5281,1.5281,1.528,1.528,1.5283,1.5282,1.5283,1.5283,1.5283,1.5283,0,1.5193,1.5198,1.521,1.5218,1.5221,1.5227,1.5234,1.524,1.5244,1.5252,1.5254,1.526,1.5267,1.5271,1.5281,1.5283,1.5291,1.5292,1.5289,1.5289,1.5293,1.5292,1.5306,1.5308,1.5299,1.5299,1.5299,0,1.52,1.5207,1.5216,1.5221,1.5226,1.5233,1.5238,1.5242,1.5247,1.5255,1.526,1.5267,1.5274,1.5285,1.529,1.5296,1.5297,1.5301,1.5298,1.5296,1.5296,1.5296,1.5296,1.5302,1.5302,1.5302,1.5302,0,1.5213,1.5214,1.5222,1.523,1.5236,1.5242,1.5249,1.5252,1.5257,1.5262,1.527,1.5275,1.5284,1.5291,1.5298,1.5301,1.5302,1.5303,1.5304,1.5303,1.5301,1.5302,1.529,1.5302,1.5302,1.5302,1.5302,1.5302,1.522,1.5226,1.5233,1.5241,1.5246,1.5251,1.5257,1.5261,1.5268,1.5276,1.5278,1.5285,1.5291,1.53,1.5304,1.531,1.5309,1.5311,1.5311,1.5311,1.5311,1.53,1.5311,1.5311,1.5311,1.5311,1.5311,0,1.5232,1.5237,1.5244,1.5252,1.5258,1.5258,1.5265,1.5269,1.5276,1.5282,1.5288,1.5296,1.5302,1.5307,1.5313,1.5317,1.5317,1.5318,1.5318,1.5319,1.5312,1.531,1.5318,1.5318,1.5318,1.5318,1.5318,1.5318,1.5239,1.5248,1.5251,1.5262,1.5266,1.5274,1.5278,1.5282,1.5286,1.5296,1.5301,1.5304,1.5309,1.5315,1.5321,1.5322,1.5324,1.5325,1.5326,1.532,1.5319,1.5319,1.5317,1.5326,1.5326,1.5332,1.5332,1.5332]}]]